Simultaneous Nadir Overpasses (SNOs) Predictions

Prediction of SNOs between GOES-15 and NPP Satellite Orbit:

Table of predicted SNOs for the next 14.0 days since TLE Epoch: 2/7/2016
Index Date Time (GOES-15) GOES-15 Lat,Lon NPP Lat,Lon Distance(km) Time Diff (sec)
1 02/09/2016 10:26:04 -0.06,-135.35 -0.09,-135.20 16.26 80
2 02/11/2016 22:31:53 0.06,-135.31 -0.09,-135.97 74.55 80
3 02/12/2016 22:10:28 0.06,-135.31 0.94,-131.44 442.16 80
4 02/14/2016 10:34:53 -0.05,-135.35 0.26,-136.70 153.94 80
5 02/15/2016 10:13:27 -0.05,-135.34 -0.78,-132.17 362.46 80
6 02/16/2016 22:38:02 0.05,-135.30 -0.44,-137.46 246.47 80
7 02/17/2016 22:16:36 0.04,-135.29 0.60,-132.93 269.62 80
8 02/19/2016 10:38:22 -0.04,-135.32 0.60,-138.19 327.38 80
9 02/20/2016 10:19:35
